Location: Passau
(48.5830°N, 13.4830°E)
Time: 21:15:20
(UTC+01:00)

YUBILEINY - Visible Passes

Search period start: 05 December 2021 00:00
Search period end: 15 December 2021 00:00
Orbit: 1478 x 1508 km, 82.5° (Epoch: 05 December)

Date Brightness Start Highest point End Pass type
(mag) Time Alt. Az. Time Alt. Az. Time Alt. Az.
05 Dec ? 01:51:20 10° N 01:51:33 11° N 01:51:33 11° N visible
05 Dec ? 16:53:54 10° SW 17:02:12 45° WNW 17:10:34 10° N visible
05 Dec ? 18:59:01 10° WNW 19:01:56 12° NW 19:04:53 10° NNW visible
06 Dec ? 01:02:02 10° N 01:02:07 10° N 01:02:07 10° N visible
06 Dec ? 18:04:51 10° W 18:10:52 20° NW 18:16:57 10° N visible
07 Dec ? 17:12:40 10° SW 17:20:16 32° WNW 17:27:59 10° N visible
08 Dec ? 18:25:20 10° WNW 18:29:29 14° NW 18:33:40 10° NNW visible
09 Dec ? 17:31:58 10° WSW 17:38:33 23° NW 17:45:14 10° N visible
10 Dec ? 16:40:08 10° SW 16:48:05 37° WNW 16:56:08 10° N visible
11 Dec ? 17:52:00 10° W 17:57:04 16° NW 18:02:11 10° NNW visible
12 Dec ? 16:59:12 10° WSW 17:06:17 27° WNW 17:13:27 10° N visible
13 Dec ? 18:13:29 10° WNW 18:15:49 11° NW 18:18:11 10° NNW visible
14 Dec ? 17:18:54 10° W 17:24:42 19° NW 17:30:33 10° N visible
